DW9605 Weather Reports


Display with metric or nautical units.
time (UTC)temp
F
wind
direction
speed
MPH
gust
MPH
rain 1hr
in
rain 24hr
in
rain mn
in
humidity
%
barometer
mb
20260504060104 54 360 17.0 27.0 0.00 0.00 0.00 36 1009.1
20260504044605 59 360 20.0 26.0 0.00 0.00 0.00 36 1007.0
20260504043100 59 360 14.0 17.0 0.00 0.00 0.00 35 1006.7
20260504041558 59 360 14.0 18.0 0.00 0.00 0.00 34 1006.3
20260504040107 58 360 10.0 14.0 0.00 0.00 0.00 36 1006.0
20260504034629 60 360 13.0 19.0 0.00 0.00 0.00 35 1005.7
20260504033057 60 360 14.0 22.0 0.00 0.01 0.00 34 1005.3
20260504031557 61 360 17.0 24.0 0.00 0.01 0.00 33 1005.0
20260504030120 62 360 13.0 17.0 0.00 0.01 0.00 29 1004.6
20260504024601 59 360 7.0 9.0 0.00 0.01 0.00 26 1004.4
20260504023056 63 121 7.0 8.0 0.00 0.01 0.00 24 1004.4
20260504021557 66 360 6.0 9.0 0.00 0.01 0.00 22 1004.4
20260504020106 68 360 8.0 12.0 0.00 0.01 0.00 21 1004.4
20260504014603 70 360 8.0 14.0 0.00 0.01 0.00 20 1004.5
20260504013056 71 360 9.0 16.0 0.00 0.01 0.00 20 1004.4
20260504011554 72 360 12.0 16.0 0.00 0.01 0.00 19 1004.5
20260504010054 73 360 9.0 17.0 0.00 0.01 0.00 19 1004.5
20260504004553 74 360 10.0 21.0 0.00 0.01 0.00 18 1004.7
20260504003054 74 360 12.0 21.0 0.00 0.01 0.00 18 1004.8
20260504001603 74 360 8.0 18.0 0.00 0.01 0.00 17 1004.9
20260504000056 75 360 7.0 15.0 0.00 0.01 0.00 17 1004.8
20260503234548 76 360 12.0 20.0 0.00 0.01 0.00 16 1005.0
20260503233047 75 360 9.0 17.0 0.00 0.01 0.00 16 1005.1
20260503231551 75 360 13.0 18.0 0.00 0.01 0.00 15 1005.2
20260503230045 75 360 11.0 21.0 0.00 0.01 0.00 16 1005.5
20260503224542 75 360 7.0 19.0 0.00 0.01 0.00 16 1005.7
20260503223041 75 360 14.0 21.0 0.00 0.01 0.00 16 1006.0
20260503221544 75 360 11.0 21.0 0.00 0.01 0.00 16 1006.1
20260503220039 75 360 9.0 21.0 0.00 0.01 0.00 16 1006.4
20260503214538 75 360 13.0 19.0 0.00 0.01 0.00 16 1006.5
20260503213041 74 360 10.0 20.0 0.00 0.01 0.00 17 1006.7
20260503211536 74 360 10.0 16.0 0.00 0.01 0.00 17 1007.1
20260503210030 73 360 6.0 20.0 0.00 0.01 0.00 18 1007.3
20260503204531 74 360 13.0 23.0 0.00 0.01 0.00 17 1007.6
20260503203026 73 360 10.0 17.0 0.00 0.01 0.00 18 1008.0
20260503201524 72 360 7.0 21.0 0.00 0.01 0.00 18 1008.2
20260503200023 72 360 10.0 18.0 0.00 0.01 0.00 20 1008.3
20260503194523 73 360 9.0 16.0 0.00 0.01 0.00 20 1008.6
20260503193023 72 360 13.0 21.0 0.00 0.01 0.00 19 1008.7
20260503191518 71 360 5.0 15.0 0.00 0.01 0.00 21 1009.0
20260503190036 71 360 11.0 20.0 0.00 0.01 0.00 20 1009.2
20260503184513 70 360 12.0 20.0 0.00 0.01 0.00 21 1009.4
20260503183016 70 360 8.0 19.0 0.00 0.01 0.00 21 1009.6
20260503181508 70 360 6.0 16.0 0.00 0.01 0.00 21 1009.8
20260503180011 70 360 10.0 17.0 0.00 0.01 0.00 22 1010.1
20260503174505 69 360 9.0 19.0 0.00 0.01 0.00 22 1010.1
20260503173000 68 360 8.0 11.0 0.00 0.01 0.00 24 1010.2
20260503171558 68 360 9.0 15.0 0.00 0.01 0.00 27 1010.4
20260503130109 33 360 3.0 5.0 0.00 0.01 0.00 93 1011.7
20260503081534 41 360 3.0 5.0 0.00 0.01 0.00 87 1013.0
20260503071513 43 360 2.0 4.0 0.00 0.01 0.00 83 1012.9